COSMOS 886 DEB, 9963

Orbit data source: Space-Track

COSMOS 886 DEB, 9963 is space debris in LEO originally from a launch on Mon, 27 Dec 1976 UTC launched from the Tyuratam Missile And Space Complex (TTMTR). Debris objects in space refer to the collection of defunct objects orbiting the Earth. Examples of debris include non-operational satellites, rocket bodies, and fragments generated from explosions, collisions, or faulty payload assembly.

Loading next visibility...
Identifier
9963, 1976-126BD
Orbit
LEO
Country
Flag of CISCIS
Related business
Manufacturer
Unknown
Mission
Spacecraft
Bus & Motor
Unknown
Mass
Unknown
Launch date (UTC)
1976-12-27 (49 years ago)
Launch vehicle
Unknown
Launch site
Tyuratam Missile And Space Complex (TTMTR)
Object type
Payload
Rocket body
Debris
Shape & HBR
Unknown shape, 0.2 m
Radar Cross Section
Medium (>0.1 m² and <1 m²)

Expand to show TLE details & history
Last TLE update: 11 hours ago

TLE from 11 hours ago
0 COSMOS 886 DEB
1 09963U 76126BD  26175.19221701  .00002225  00000-0  73941-3 0  9991
2 09963  65.7922 147.7526 0767156  68.9456 299.1851 13.38290151354912
Epoch: 2026-06-24T04:36Z
TLE epoch observation values (Epoch: 2026-06-24T04:36:47.549Z)
Latitude
-0.00002°
Longitude
166.20151°
Altitude
872.724 km
Speed
7.537 km/s
True Right ascension
09h 51m 00s
True Declination
0° 00' 00"
Sunlit
Object was in daylight at epoch
Visualization orbit readout
Latitude
Unknown
Longitude
Unknown
Altitude
Unknown
Speed
Unknown
Apparent Right ascension
Unknown
Apparent Declination
Unknown
Sunlit
N/A
Visualization observer readout
Local Sidereal Time
03:13:05
Azimuth
Unknown
Elevation
Unknown
Doppler factor
Unknown
Orbital elements
Apogee altitude
1,688.969 km
Perigee altitude
539.412 km
Semi-major axis
7,492.328 km
Eccentricity
0.07672
Inclination
65.7922°
RAAN
147.7526°
Arg. of periapsis
68.9456°
True anomaly
291.16091°
Mean anomaly
299.1851°
Eccentric anomaly
295.20822°
Mean motion
3.34671 °/min
Orbital period
107.57 mins
BSTAR
0.00073941
Loading maneuver chart data...
Computing Atmospheric mass density...

Documentation

Showing up to 5 results
|